Weather History for Eagle, AK

Change the Weather History Date:

Monday, December 24, 2012

  Actual Average (PABN) Record (PABN)
Temperature  
Mean Temperature -14 °F -  
Max Temperature 5 °F 4 °F 64 °F (2001)
Min Temperature -32 °F 0 °F -23 °F (2012)
Degree Days  
Heating Degree Days 78    
Moisture  
Dew Point -12 °F    
Average Humidity 67    
Maximum Humidity 73    
Minimum Humidity 63    
Precipitation  
Precipitation 0.01 in - - ()
Sea Level Pressure  
Sea Level Pressure 30.11 in    
Wind  
Wind Speed 2 mph (East)    
Max Wind Speed 9 mph    
Max Gust Speed -    
Visibility 10 miles    
Events      
Averages and records for this station are not official NWS values.
T = Trace of Precipitation, MM = Missing Value Source: NWS Daily Summary

Daily Weather History Graph

Daily Weather History Graph

Search for Another Location

Airport:

Trip Planner

Search our weather history database for the weather conditions in past years. The results will help you decide how hot, cold, wet, or windy it might be!

Date:

Astronomy

Dec. 24, 2012 Rise Set
Actual Time 10:31 AM AKST 2:17 PM AKST
Civil Twilight 9:07 AM AKST 3:42 PM AKST
Nautical Twilight 7:55 AM AKST 4:53 PM AKST
Astronomical Twilight 6:53 AM AKST 5:55 PM AKST
Moon 12:33 PM AKST (12/24) 6:31 AM AKST (12/24)
Length of Visible Light 6h 35m
Length of Day
3h 45m
Waxing Gibbous, 89% of the Moon is Illuminated
Dec 24
Waxing Gibbous
Dec 28
Full
Jan 4
Last Quarter
Jan 11
New
Jan 18
First Quarter

Hourly Weather History & Observations

Time (AKST) Temp. Windchill Dew Point Humidity Pressure Visibility Wind Dir Wind Speed Gust Speed Precip Events Conditions
12:53 AM -20.0 °F - -27.9 °F 67% 30.10 in 10.0 mi Calm Calm - N/A   Overcast
1:53 AM -23.1 °F - -29.9 °F 70% 30.10 in 10.0 mi Calm Calm - N/A   Clear
3:53 AM -29.9 °F -42.0 °F - N/A% 30.10 in 10.0 mi South 3.5 mph - N/A   Clear
4:53 AM -32.1 °F - - N/A% 30.10 in 10.0 mi Calm Calm - N/A   Clear
5:53 AM -29.9 °F - - N/A% 30.10 in 10.0 mi Calm Calm - N/A   Clear
6:53 AM -29.9 °F - - N/A% 30.10 in 10.0 mi Calm Calm - N/A   Clear
7:53 AM -29.9 °F - - N/A% 30.09 in 10.0 mi Calm Calm - N/A   Clear
8:53 AM -29.9 °F - - N/A% 30.09 in 10.0 mi Calm Calm - N/A   Clear
9:53 AM -27.0 °F - -33.0 °F 73% 30.10 in 10.0 mi Calm Calm - N/A   Clear
10:53 AM -23.1 °F -34.2 °F -29.9 °F 70% 30.12 in 10.0 mi East 3.5 mph - N/A   Clear
11:53 AM -4.0 °F - -11.9 °F 69% 30.12 in 10.0 mi Calm Calm - 0.01 in   Clear
12:53 PM -5.1 °F -15.8 °F -11.9 °F 72% 30.12 in 10.0 mi East 4.6 mph - N/A   Clear
1:53 PM -0.0 °F -15.3 °F -8.0 °F 69% 30.11 in 10.0 mi East 9.2 mph - N/A   Clear
2:53 PM 1.0 °F -10.3 °F -8.0 °F 66% 30.12 in 10.0 mi East 5.8 mph - N/A   Clear
3:53 PM -0.0 °F -11.6 °F -9.0 °F 66% 30.11 in 10.0 mi East 5.8 mph - N/A   Clear
4:53 PM 3.0 °F -9.3 °F -6.0 °F 66% 30.12 in 10.0 mi East 6.9 mph - N/A   Clear
5:53 PM 3.9 °F -6.9 °F -6.0 °F 64% 30.11 in 10.0 mi ESE 5.8 mph - N/A   Clear
6:53 PM 5.0 °F -5.6 °F -5.1 °F 63% 30.12 in 10.0 mi ENE 5.8 mph - N/A   Clear
7:53 PM 3.0 °F -6.4 °F -6.0 °F 66% 30.13 in 10.0 mi ENE 4.6 mph - N/A   Clear
8:53 PM 3.9 °F -6.9 °F -5.1 °F 66% 30.14 in 10.0 mi East 5.8 mph - N/A   Clear
9:53 PM 5.0 °F -6.9 °F -5.1 °F 63% 30.12 in 10.0 mi ENE 6.9 mph - N/A   Clear
10:53 PM 5.0 °F -5.6 °F -5.1 °F 63% 30.12 in 10.0 mi Variable 5.8 mph - N/A   Clear
11:53 PM 5.0 °F -9.1 °F -4.0 °F 66% 30.10 in 10.0 mi East 9.2 mph - N/A   Clear